Location: ????
(55.5675°N, 37.6272°E)
Time: 06:52:21
(UTC+00:00)

Meteor 1-20 Rocket - Pass Details

Date: 14 April 2026
Orbit: 817 x 891 km, 81.2° (Epoch: 13 May)

Event Time Altitude Azimuth Distance (km) Brightness Sun altitude
Rises 22:01:30 0° 346° (NNW) 3,376 8.4 -24.4°
Reaches altitude 10° 22:03:56 10° 348° (NNW) 2,433 7.5 -24.4°
Maximum altitude 22:09:25 70° 73° (ENE) 872 4.2 -24.2°
Enters shadow 22:10:48 50° 138° (SE) 1,043 4.4 -24.2°
